SB KEPS @ AMSAT $ORB12278.O Orbital Elements 12278.OSCAR
HR AMSAT ORBITAL ELEMENTS FOR OSCAR SATELLITES FROM WA5QGD FORT WORTH,TX October 4, 2012 BID: ORB12278.O TO ALL RADIO AMATEURS BT
Satellite: AO-07 Catalog number: 07530 Epoch time: 12277.52119834 Element set: 0498 Inclination: 101.4117 deg RA of node: 270.5822 deg Eccentricity: 0.0012150 Arg of perigee: 070.3436 deg Mean anomaly: 289.8951 deg Mean motion: 12.53591734 rev/day Decay rate: -2.7e-07 rev/day^2 Epoch rev: 73362 Checksum: 292
Satellite: FO-29 Catalog number: 24278 Epoch time: 12277.81841158 Element set: 947 Inclination: 098.5874 deg RA of node: 004.2710 deg Eccentricity: 0.0351205 Arg of perigee: 108.0888 deg Mean anomaly: 255.8833 deg Mean motion: 13.52990391 rev/day Decay rate: 9.0e-07 rev/day^2 Epoch rev: 79664 Checksum: 341
Satellite: SO-33 Catalog number: 25509 Epoch time: 12278.54667848 Element set: 335 Inclination: 031.4302 deg RA of node: 074.7712 deg Eccentricity: 0.0351442 Arg of perigee: 080.3375 deg Mean anomaly: 283.6733 deg Mean motion: 14.28829498 rev/day Decay rate: 6.05e-06 rev/day^2 Epoch rev: 72830 Checksum: 320
Satellite: RS-22 Catalog number: 27939 Epoch time: 12278.61912168 Element set: 783 Inclination: 097.8025 deg RA of node: 113.7933 deg Eccentricity: 0.0012334 Arg of perigee: 280.6807 deg Mean anomaly: 079.2990 deg Mean motion: 14.64156007 rev/day Decay rate: 9.49e-06 rev/day^2 Epoch rev: 48189 Checksum: 340
Satellite: VO-52 Catalog number: 28650 Epoch time: 12278.62311789 Element set: 225 Inclination: 097.5888 deg RA of node: 304.1948 deg Eccentricity: 0.0027420 Arg of perigee: 043.0709 deg Mean anomaly: 317.2609 deg Mean motion: 14.83230822 rev/day Decay rate: 1.692e-05 rev/day^2 Epoch rev: 40119 Checksum: 309
Satellite: HO-68 Catalog number: 36122 Epoch time: 12278.74201514 Element set: 888 Inclination: 100.3485 deg RA of node: 335.8173 deg Eccentricity: 0.0007204 Arg of perigee: 217.5058 deg Mean anomaly: 142.5561 deg Mean motion: 13.16298360 rev/day Decay rate: -4.4e-07 rev/day^2 Epoch rev: 13480 Checksum: 287
/EX SB KEPS @ AMSAT $ORB12278.D Orbital Elements 12278.MICROS
HR AMSAT ORBITAL ELEMENTS FOR THE MICROSATS FROM WA5QGD FORT WORTH,TX October 4, 2012 BID: ORB12278.D TO ALL RADIO AMATEURS BT
Satellite: UO-11 Catalog number: 14781 Epoch time: 12277.73000793 Element set: 0999 Inclination: 097.9424 deg RA of node: 336.2337 deg Eccentricity: 0.0009936 Arg of perigee: 045.3868 deg Mean anomaly: 314.8152 deg Mean motion: 14.80585072 rev/day Decay rate: 1.117e-05 rev/day^2 Epoch rev: 53599 Checksum: 335
Satellite: AO-16 Catalog number: 20439 Epoch time: 12277.87341209 Element set: 0588 Inclination: 098.4386 deg RA of node: 218.2506 deg Eccentricity: 0.0010312 Arg of perigee: 193.8858 deg Mean anomaly: 166.2040 deg Mean motion: 14.32091026 rev/day Decay rate: 2.48e-06 rev/day^2 Epoch rev: 18555 Checksum: 305
Satellite: LO-19 Catalog number: 20442 Epoch time: 12277.88000219 Element set: 0504 Inclination: 098.4067 deg RA of node: 220.8894 deg Eccentricity: 0.0011417 Arg of perigee: 184.6680 deg Mean anomaly: 175.4392 deg Mean motion: 14.32307134 rev/day Decay rate: 2.34e-06 rev/day^2 Epoch rev: 18574 Checksum: 295
Satellite: AO-27 Catalog number: 22825 Epoch time: 12277.87908027 Element set: 211 Inclination: 098.5842 deg RA of node: 219.0489 deg Eccentricity: 0.0007947 Arg of perigee: 326.5123 deg Mean anomaly: 033.5554 deg Mean motion: 14.29492068 rev/day Decay rate: 1.73e-06 rev/day^2 Epoch rev: 99200 Checksum: 321
Satellite: IO-26 Catalog number: 22826 Epoch time: 12277.85906040 Element set: 0977 Inclination: 098.5781 deg RA of node: 219.3718 deg Eccentricity: 0.0008627 Arg of perigee: 320.5862 deg Mean anomaly: 039.4687 deg Mean motion: 14.29769124 rev/day Decay rate: 2.56e-06 rev/day^2 Epoch rev: 99213 Checksum: 349
Satellite: GO-32 Catalog number: 25397 Epoch time: 12277.51904577 Element set: 889 Inclination: 098.3764 deg RA of node: 250.9688 deg Eccentricity: 0.0001349 Arg of perigee: 011.0230 deg Mean anomaly: 349.0963 deg Mean motion: 14.23296970 rev/day Decay rate: 2.30e-06 rev/day^2 Epoch rev: 73943 Checksum: 330
Satellite: NO-44 Catalog number: 26931 Epoch time: 12277.74299307 Element set: 0152 Inclination: 067.0520 deg RA of node: 200.5477 deg Eccentricity: 0.0006140 Arg of perigee: 250.6072 deg Mean anomaly: 109.4372 deg Mean motion: 14.29837561 rev/day Decay rate: 1.63e-06 rev/day^2 Epoch rev: 57476 Checksum: 296
Satellite: SO-50 Catalog number: 27607 Epoch time: 12278.58434690 Element set: 881 Inclination: 064.5586 deg RA of node: 322.0836 deg Eccentricity: 0.0075761 Arg of perigee: 226.6430 deg Mean anomaly: 132.8333 deg Mean motion: 14.72553757 rev/day Decay rate: 1.272e-05 rev/day^2 Epoch rev: 52607 Checksum: 320
Satellite: CO-55 Catalog number: 27844 Epoch time: 12277.56435813 Element set: 476 Inclination: 098.7029 deg RA of node: 284.3798 deg Eccentricity: 0.0008885 Arg of perigee: 271.1514 deg Mean anomaly: 088.8651 deg Mean motion: 14.21083675 rev/day Decay rate: 4.51e-06 rev/day^2 Epoch rev: 48028 Checksum: 347
Satellite: CO-57 Catalog number: 27848 Epoch time: 12278.50268528 Element set: 426 Inclination: 098.7122 deg RA of node: 284.6866 deg Eccentricity: 0.0008899 Arg of perigee: 274.9005 deg Mean anomaly: 085.1148 deg Mean motion: 14.20827447 rev/day Decay rate: 3.06e-06 rev/day^2 Epoch rev: 48035 Checksum: 344
Satellite: AO-51 Catalog number: 28375 Epoch time: 12278.65358140 Element set: 380 Inclination: 098.1605 deg RA of node: 238.9168 deg Eccentricity: 0.0084573 Arg of perigee: 069.1792 deg Mean anomaly: 291.8439 deg Mean motion: 14.40993987 rev/day Decay rate: 1.82e-06 rev/day^2 Epoch rev: 43453 Checksum: 351
Satellite: CP3 Catalog number: 31129 Epoch time: 12277.94504195 Element set: 0282 Inclination: 097.8842 deg RA of node: 279.3450 deg Eccentricity: 0.0101220 Arg of perigee: 144.3415 deg Mean anomaly: 216.4581 deg Mean motion: 14.53234406 rev/day Decay rate: 1.281e-05 rev/day^2 Epoch rev: 28977 Checksum: 295
Satellite: CO-65 Catalog number: 32785 Epoch time: 12277.73210651 Element set: 0433 Inclination: 097.7866 deg RA of node: 336.1592 deg Eccentricity: 0.0015792 Arg of perigee: 069.2769 deg Mean anomaly: 291.0108 deg Mean motion: 14.83243785 rev/day Decay rate: 2.664e-05 rev/day^2 Epoch rev: 23985 Checksum: 345
Satellite: PRISM Catalog number: 33493 Epoch time: 12278.75050441 Element set: 132 Inclination: 098.1854 deg RA of node: 062.0617 deg Eccentricity: 0.0017736 Arg of perigee: 303.8529 deg Mean anomaly: 056.0994 deg Mean motion: 14.84456162 rev/day Decay rate: 4.972e-05 rev/day^2 Epoch rev: 20000 Checksum: 291
Satellite: SOHLA-1 Catalog number: 33496 Epoch time: 12277.87632558 Element set: 0858 Inclination: 098.1138 deg RA of node: 028.9529 deg Eccentricity: 0.0007527 Arg of perigee: 060.0044 deg Mean anomaly: 300.1907 deg Mean motion: 14.70063300 rev/day Decay rate: 8.13e-06 rev/day^2 Epoch rev: 19821 Checksum: 297
Satellite: SO-67 Catalog number: 35870 Epoch time: 12278.75176634 Element set: 388 Inclination: 097.2224 deg RA of node: 310.6433 deg Eccentricity: 0.0003312 Arg of perigee: 116.9497 deg Mean anomaly: 349.1081 deg Mean motion: 15.24710902 rev/day Decay rate: 7.028e-05 rev/day^2 Epoch rev: 16930 Checksum: 308
Satellite: TISAT-1 Catalog number: 36799 Epoch time: 12278.77722647 Element set: 406 Inclination: 098.0547 deg RA of node: 355.8891 deg Eccentricity: 0.0014863 Arg of perigee: 173.0014 deg Mean anomaly: 187.1391 deg Mean motion: 14.82332306 rev/day Decay rate: 3.359e-05 rev/day^2 Epoch rev: 12072 Checksum: 320
Satellite: STUDSAT Catalog number: 36801 Epoch time: 12277.84118217 Element set: 0497 Inclination: 098.0620 deg RA of node: 356.1961 deg Eccentricity: 0.0012600 Arg of perigee: 161.7837 deg Mean anomaly: 198.3828 deg Mean motion: 14.85367378 rev/day Decay rate: 1.0532e-04 rev/day^2 Epoch rev: 12064 Checksum: 309
Satellite: FO-69 Catalog number: 37227 Epoch time: 12278.34281557 Element set: 0301 Inclination: 071.9686 deg RA of node: 071.0651 deg Eccentricity: 0.0015487 Arg of perigee: 120.4940 deg Mean anomaly: 239.8047 deg Mean motion: 14.77198537 rev/day Decay rate: 9.91e-06 rev/day^2 Epoch rev: 05221 Checksum: 321
Satellite: FO-70 Catalog number: 37380 Epoch time: 12278.36681255 Element set: 0305 Inclination: 071.9714 deg RA of node: 071.7126 deg Eccentricity: 0.0016212 Arg of perigee: 117.5761 deg Mean anomaly: 242.7091 deg Mean motion: 14.76947862 rev/day Decay rate: 1.157e-05 rev/day^2 Epoch rev: 05210 Checksum: 295
Satellite: ALMASAT-1 Catalog number: 38078 Epoch time: 12278.85993318 Element set: 622 Inclination: 069.4779 deg RA of node: 068.1911 deg Eccentricity: 0.0739111 Arg of perigee: 111.1034 deg Mean anomaly: 257.0413 deg Mean motion: 14.13365514 rev/day Decay rate: 3.2339e-04 rev/day^2 Epoch rev: 3302 Checksum: 295
Satellite: XATCOBEO Catalog number: 38082 Epoch time: 12278.84052952 Element set: 595 Inclination: 069.4785 deg RA of node: 062.7399 deg Eccentricity: 0.0692464 Arg of perigee: 108.1922 deg Mean anomaly: 259.5228 deg Mean motion: 14.26133257 rev/day Decay rate: 7.1705e-04 rev/day^2 Epoch rev: 3316 Checksum: 331
/EX SB KEPS @ AMSAT $ORB12278.W Orbital Elements 12278.WEATHER
HR AMSAT ORBITAL ELEMENTS FOR WEATHER SATELLITES FROM WA5QGD FORT WORTH,TX October 4, 2012 BID: ORB12278.W TO ALL RADIO AMATEURS BT
Satellite: NOAA-10 Catalog number: 16969 Epoch time: 12277.86841203 Element set: 0087 Inclination: 098.5728 deg RA of node: 304.9496 deg Eccentricity: 0.0011415 Arg of perigee: 278.6943 deg Mean anomaly: 081.2944 deg Mean motion: 14.27581948 rev/day Decay rate: 2.17e-06 rev/day^2 Epoch rev: 35537 Checksum: 343
Satellite: NOAA-11 Catalog number: 19531 Epoch time: 12277.75864799 Element set: 0080 Inclination: 098.7281 deg RA of node: 000.6111 deg Eccentricity: 0.0010372 Arg of perigee: 276.3263 deg Mean anomaly: 083.6728 deg Mean motion: 14.14983143 rev/day Decay rate: -3.7e-07 rev/day^2 Epoch rev: 23986 Checksum: 311
